Regional Weather Roundup
Issued by NWS

Home | Current Version | Previous Version | Graphics & Text | Print | Product List | Glossary On
Versions: 1 2 3 4 5 6 7 8 9 10 11 12 13 14 15 16 17 18 19 20 21 22 23 24 25 26 27 28 29 30 31 32 33 34 35 36 37 38 39 40 41 42 43 44 45 46 47 48 49 50
000
ASUS43 KMKX 281100
RWRWI

WISCONSIN REGIONAL WEATHER ROUNDUP
NATIONAL WEATHER SERVICE MILWAUKEE/SULLIVAN WI
600 AM CDT THU JUL 28 2016

NOTE: "FAIR" INDICATES FEW OR NO CLOUDS BELOW 12,000 FEET WITH NO
SIGNIFICANT WEATHER AND/OR OBSTRUCTIONS TO VISIBILITY.

WIZ001-002-006>008-014>016-023>028-281200-
NORTHWEST WISCONSIN

CITY           SKY/WX    TMP DP  RH WIND       PRES   REMARKS
SUPERIOR ARPT  CLOUDY    60  57  89 NE6       30.05R
ASHLAND        PTCLDY    61  59  93 NE7       30.05S
HAYWARD        MOCLDY    61  59  93 NE8       30.03S
SIREN          CLOUDY    61  59  94 NE6       30.02S
CUMBERLAND     CLOUDY    63  61  94 N9        30.00S
RICE LAKE      CLOUDY    65  62  92 N8        30.01R
CHETEK         CLOUDY    65  64  95 NE6       29.99S
LADYSMITH      CLOUDY    65  63  96 NE7       30.01F
EAU CLAIRE     CLOUDY    65  65 100 N5        29.96R
MENOMONIE      CLOUDY    65  65  99 CALM      29.98R
NEW RICHMOND   CLOUDY    64  63  97 N7        29.99S
OSCEOLA        CLOUDY    64  64 100 N8        30.02S
$$

WIZ003>005-009-010-017-018-281200-
NORTH CENTRAL WISCONSIN

CITY           SKY/WX    TMP DP  RH WIND       PRES   REMARKS
MANITOWISH WTR CLOUDY    59  59 100 NE6       30.05S
ARBOR VITAE    CLOUDY    60  58  92 NE5       30.04S
WOODRUFF       CLOUDY    60  58  92 NE5       30.04S
RHINELANDER    CLOUDY    59  57  93 NE8       30.04S
EAGLE RIVER    CLOUDY    58  58  99 E6        30.04F
LAND O LAKES   CLOUDY    59  58  95 CALM      30.07R
PHILLIPS       CLOUDY    62  61  99 NE12      30.02R
TOMAHAWK       CLOUDY    59  57  94 NE3       30.03R
MEDFORD        DRIZZLE   62  62 100 E5        29.99R
MERRILL        HVY RAIN  59  59 100 NE6       30.01S
$$

WIZ029-030-035-036-043>047-281200-
CENTRAL WISCONSIN

CITY           SKY/WX    TMP DP  RH WIND       PRES   REMARKS
WAUSAU         LGT RAIN  60  58  92 NE6       29.98S
MOSINEE        DRIZZLE   61  61 100 NE12G17   29.99S
MARSHFIELD     LGT RAIN  66  63  90 NE9       29.96R
STEVENS POINT  DRIZZLE   63  63  99 E10       29.96S
WAUPACA        CLOUDY    67  67  99 NE5       29.96S
WAUTOMA        CLOUDY    67  66  97 NE7       29.96R
WISC RAPIDS    CLOUDY    66  63  90 E7        29.96R
CAMP DOUGLAS   CLOUDY    68  66  94 E8        29.92S
$$

WIZ011>013-019>022-031-037>040-048>050-281200-
NORTHEAST WISCONSIN

CITY           SKY/WX    TMP DP  RH WIND       PRES   REMARKS
ANTIGO         LGT RAIN  57  57 100 E6        30.02S
SHAWANO        CLOUDY    63  60  92 NE10      29.99S
OCONTO         CLOUDY   N/A N/A N/A NE7       29.99S
STURGEON BAY   LGT RAIN  61  60  97 NE8       30.01R
GREEN BAY      CLOUDY    64  64 100 NE10      29.98R
MANITOWOC      NOT AVBL
APPLETON       NOT AVBL
CLINTONVILLE   CLOUDY    61  59  94 NE8       29.99R
OSHKOSH        CLOUDY    67  62  84 E10       29.95R
$$

WIZ032>034-041-042-053>061-281200-
SOUTHWEST WISCONSIN

CITY           SKY/WX    TMP DP  RH WIND       PRES   REMARKS
LA CROSSE      CLOUDY    68  66  93 N8        29.91R
SPARTA         LGT RAIN  67  66  99 N6        29.92S
VIROQUA        CLOUDY    67  67 100 N3        29.93R VSB 1/2
BOSCOBEL       FOG       68  67  96 CALM      29.91R VSB 1/4
PRAIRIE DU CHI CLOUDY    68  66  95 CALM      29.89S FOG
PLATTEVILLE    CLEAR     67  66  97 CALM      29.90F
$$

WIZ056-057-062-063-064-067-068-281200-
SOUTH CENTRAL WISCONSIN

CITY           SKY/WX    TMP DP  RH WIND       PRES   REMARKS
REEDSBURG      CLOUDY   N/A N/A N/A E3        29.92S
BARABOO/DELLS  MOCLDY    66  65  94 E5        29.92S FOG
LONE ROCK      CLOUDY    66  65  96 CALM      29.91S FOG
MINERAL POINT  PTCLDY    66  64  94 CALM      29.91F
MADISON        MOCLDY    69  66  90 E8        29.91S
MIDDLETON      MOCLDY    68  68 100 E7        29.91F
WATERTOWN      CLOUDY    67  67 100 E7        29.92S
MONROE         CLEAR     68  64  88 CALM      29.90S FOG
JANESVILLE     PTCLDY    68  68 100 CALM      29.90R FOG
$$

WIZ051-052-058>065-066-070>072-281200-
SOUTHEAST WISCONSIN

CITY           SKY/WX    TMP DP  RH WIND       PRES   REMARKS
MILWAUKEE      MOCLDY    69  66  90 NE8       29.92F
WAUKESHA       MOCLDY    64  64 100 E9        29.95S
MILWAUKEE/TIMM MOCLDY    68  63  83 NE5       29.94F
RACINE         CLEAR     67  65  93 N7        29.93F
BURLINGTON     PTCLDY    68  67  98 NE5       29.93R
KENOSHA        MOCLDY    69  67  93 NE7       29.92R FOG
FOND DU LAC    CLOUDY    68  63  84 E8        29.95S
SHEBOYGAN      CLOUDY    66  62  87 NE13      29.95R
WEST BEND      CLOUDY    64  64 100 NE5       29.95R
JUNEAU         CLOUDY    65  64  95 E9        29.94S
$$

LSZ147-162-281200-
LAKE SUPERIOR

STATION/POSITION TIME  TEMP    WIND        PRES    WAVE
                       AIR SEA DIR/SP/G            HT/PER
                 (UTC) (F)     (DEG/KT/KT) (MB)    (FT/S)
W MID LAKE BUOY  0950   61 59  360/  6/  8 1017.3R   0
DEVILS ISLAND    1000   63      30/  7/  9 1018.0R
PORT WING        0946   60      70/  3/  3 1017.6S
SAXON HARBOR     1000   65      80/  5/  8 1017.3
$$

LMZ867-665-643>646-281200-
LAKE MICHIGAN

STATION/POSITION TIME  TEMP    WIND        PRES    WAVE
                       AIR SEA DIR/SP/G            HT/PER
                 (UTC) (F)     (DEG/KT/KT) (MB)    (FT/S)
CHAMBERS ISLAND  1000   65      20/ 16/ 18 1015.2S
N MID LAKE BUOY  0950   65 69   20/ 16/ 19 1014.6R   2/ 4
NORTHPORT PIER   1000   63      20/  8/ 12 1015.6S
SISTER BAY       1036   60      20/  3/  8   N/A
ALGOMA LAKESHORE 1013           40/ 14/ 19   N/A
KEWAUNEE LAKESHO 1000   62      30/  3/  6 1014.1S
SHEBOYGAN LAKESH 1000   61     350/ 15/ 16 1014.0F
PORT WASHINGTON  1000   69     350/  4/  6 1014.6
ATWATER BUOY     1000   64 64   20/ 14/ 17 1014.9F
MILWAUKEE LAKESH 1010   67      30/ 16/ 17   N/A
S MID LAKE BUOY  0950   74 75  350/  8/ 10 1012.0F   0
KENOSHA   LAKESH 1000   71      CALM  /  2 1012.5R
$$

TC  - TEMPERATURE IN CELSIUS
VSB - VISIBILITY IN STATUTE MILES
WCI - WIND CHILL INDEX
HX  - HEAT INDEX




USA.gov is the U.S. government's official web portal to all federal, state and local government web resources and services.